Location: Newark
(21.1200°N, 73.4000°E)
Time: 03:42:49
(UTC+00:00)

Courier 1B Rocket - Pass Details

Date: 23 January 2020
Orbit: 920 x 1202 km, 28.2° (Epoch: 17 February)

Event Time Altitude Azimuth Distance (km) Brightness Sun altitude
Rises 07:26:27 0° 261° (W) 3,915 8.3 49.3°
Reaches altitude 10° 07:29:20 10° 265° (W) 2,915 7.7 49.2°
Maximum altitude 07:36:21 63° 345° (NNW) 1,131 5.8 49.1°
Drops below altitude 10° 07:42:54 10° 66° (ENE) 2,714 7.2 48.9°
Sets 07:45:30 0° 70° (ENE) 3,629 7.8 48.8°
